ASTRA 4A

Last updated on Thu Oct 30 2025 00:02:47 GMT+0000 (Coordinated Universal Time)

1 32299U 07057A 25302.25797334 .00000043 00000+0 00000+0 0 9991 2 32299 0.0499 68.6587 0002330 134.6207 292.2666 1.00271209 49334
UTC large
Height (km)
Speed (km/s)
/
Latitude / Longitude
Inclination (degrees)
Orbital Period (minutes)
Azimuth
Elevation
Range (km)
Doppler Factor

Next 0 passes for location: London (51.5072 / 0.1276)

Sorry there are no passes over London.